Regional Weather Roundup
Issued by NWS

Home | Current Version | Previous Version | Text Only | Print | Product List | Glossary Off
Versions: 1 2 3 4 5 6 7 8 9 10 11 12 13 14 15 16 17 18 19 20 21 22 23 24 25 26 27 28

000
ASUS45 KTFX 070010
RWRMT
MONTANA REGIONAL WEATHER ROUNDUP
NATIONAL WEATHER SERVICE GREAT FALLS MT
500 PM MST TUE DEC 06 2016

NOTE: "FAIR" INDICATES FEW OR NO CLOUDS BELOW 12000 FEET WITH NO
SIGNIFICANT WEATHER AND/OR OBSTRUCTIONS TO VISIBILITY.

MTZ001>007-043-070100-
WEST OF THE DIVIDE

CITY           SKY/WX    TMP DP  RH WIND       PRES   REMARKS
KALISPELL      CLEAR     13   1  59 N21       30.08R WCI  -5
MISSOULA       PTCLDY    17   4  56 E12       30.05R WCI   4
BUTTE          CLOUDY     8   1  73 S14G21    29.87R WCI  -8
MULLAN PASS    CLOUDY     8   5  87 CALM      29.83R
ANACONDA         N/A      5  -2  72 N8        29.94R WCI  -8
DEER LODGE       N/A      3  -2  78 NW12      29.99R WCI -13
EUREKA           N/A      3   0  85 CALM      30.13R
HAMILTON         N/A     18  12  79 N9        29.98R WCI   6
LIBBY            N/A     21  16  79 CALM      30.08R
PLAINS           N/A     24  10  55 N3        30.07R
RONAN            N/A     21  10  62 CALM      30.06R
$$

MTZ008-052>055-070100-
SOUTHWEST MONTANA

CITY           SKY/WX    TMP DP  RH WIND       PRES   REMARKS
BOZEMAN        CLOUDY    11   2  67 N7        29.98R WCI   0
DILLON         CLOUDY    10   1  67 NE14      29.87R WCI  -6
W YELLOWSTONE  CLOUDY     9   0  66 CALM      29.75R
ENNIS          CLOUDY     9   3  78 N13       29.93R HAZE    WCI  -7
$$

MTZ009-010-012-014-046-048-049-054-070100-
EAST SLOPES AND CENTRAL MONTANA

CITY           SKY/WX    TMP DP  RH WIND       PRES   REMARKS
CUT BANK       PTCLDY    -5 -10  79 NW12      30.18R WCI -23
GREAT FALLS    CLOUDY     0  -7  72 CALM      30.19R
HELENA         CLOUDY     3  -5  69 W14       30.12R WCI -15
CHOTEAU          N/A     -4  -9  77 MISG      30.19R
CONRAD           N/A     -3 -10  72 W5        30.19R
$$

MTZ011-013-016-021-045-047-050-051-070100-
NORTH CENTRAL MONTANA

CITY           SKY/WX    TMP DP  RH WIND       PRES   REMARKS
HAVRE          PTCLDY     0  -8  69 NW9       30.29R WCI -15
LEWISTOWN      CLOUDY     0  -6  76 NW12      30.11R WCI -17
N BAR RANCH      N/A      0  -9  65 NW12G20   30.05R WCI -18
CHINOOK          N/A      0  -8  71 W13       30.29R WCI -18
$$

MTZ017>020-022>027-061-062-070100-
NORTHEAST MONTANA

CITY           SKY/WX    TMP DP  RH WIND       PRES   REMARKS
GLASGOW        CLEAR      1  -8  66 NW23      30.19R WCI -22
JORDAN           N/A      1  -6  72 NW12      30.18R WCI -16
WOLF POINT     MOCLDY     3  -7  63 W10       30.20R WCI -12
PLENTYWOOD       N/A      1  -6  71 NW25G32   30.06S WCI -22
POPLAR           N/A      3  -8  60 NW17G25   30.18R WCI -17
SCOBEY           N/A      0 -12  56 W15       30.09  WCI -19
$$

MTZ028>42-056>058-070100-
SOUTHCENTRAL AND SOUTHEAST MONTANA

CITY           SKY/WX    TMP DP  RH WIND       PRES   REMARKS
BAKER          CLOUDY     3  -4  72 NW21      30.08R WCI -18
BILLINGS       PTCLDY    11   2  67 E3        30.07R
LIVINGSTON     FLURRIES   8   1  73 E18       29.97R WCI -11
MILES CITY     CLEAR      6  -4  63 NW9       30.16R WCI  -8
BIG TIMBER     CLOUDY     7  -2  66 NE12      30.04R WCI  -9
EKALAKA          N/A     -1 -10  65 W10       29.99  WCI -17
FORSYTH          N/A      9   0  66 NW3       30.16R
LAUREL           N/A     12   0  59 NE7       30.04R WCI   1
ROUNDUP          N/A      6  -9  50 NE7       30.01R WCI  -6
$$

REGIONAL REPORTS...DAKOTAS

CITY           SKY/WX    TMP DP  RH WIND       PRES   REMARKS
WILLISTON      CLOUDY     4  -3  73 NW21G29   30.10R WCI -17
MINOT          LGT SNOW   7   2  80 W30G41    29.92R WCI -16
DICKINSON      MIX PCPN   1  -5  75 NW29      29.99R WCI -24
BEACH          CLOUDY     1  -2  85 NW20G25   30.10R WCI -20
CROSBY         LGT SNOW   3   0  85 NW24G33   30.06S WCI -20
TIOGA          LGT SNOW   3   1  92 NW23      30.02R WCI -19
WATFORD CITY   CLOUDY     3  -2  78 NW21G30   30.07R WCI -18
BISMARCK       CLOUDY     7   3  84 W20G32    29.98R WCI -13
GRAND FORKS    LGT SNOW  20  16  84 NW31G40   29.58R VSB 1   WCI   1
FARGO          LGT SNOW  18  12  77 W33G43    29.65R WCI  -2
BUFFALO SD       N/A      6  -3  66 W23G32    29.97R WCI -15
RAPID CITY     CLEAR      9   0  67 NW12      30.02R WCI  -6
$$

REGIONAL REPORTS...WYOMING/IDAHO/WASHINGTON

CITY           SKY/WX    TMP DP  RH WIND       PRES   REMARKS
GILLETTE       PTCLDY     0  -4  83 NW9       29.99R WCI -15
SHERIDAN       CLOUDY     9   2  73 NW8       30.05R WCI  -3
BUFFALO WY     CLOUDY     7   0  73 N10       29.95R WCI  -8
CODY           FLURRIES   9   4  80 N12       29.92R WCI  -6
YELLOWSTONE LA   N/A      5  -1  76 CALM      29.69R
IDAHO FALLS    CLOUDY    20  11  68 NE6       29.83R WCI  12
SALMON         CLOUDY    12  10  92 CALM      29.93R
BOISE          CLOUDY    26  19  74 N3        30.00R
SPOKANE        PTCLDY    27  12  53 N8        30.06R WCI  19
$$

REGIONAL REPORTS...ALBERTA

CITY           SKY/WX    TMP DP  RH WIND       PRES   REMARKS
EDMONTON       LGT SNOW  -2  -9  71 NW8       30.38R WCI -17
CALGARY        MOCLDY    -2 -11  65 N13       30.24R WCI -21
LETHBRIDGE     MOCLDY    -4  -9  77 NW7       30.29R WCI -18
MEDICINE HAT   FLURRIES  -2  -6  84 W7        30.31R WCI -16
WATERTON GATE    N/A    -13 -18  77 E3          N/A
CARDSTON         N/A     -8 -15  71 NW3         N/A
MILK RIVER       N/A     -4  -8  84 N10         N/A  WCI -21
$$

REGIONAL REPORTS...SASKATCHEWAN

CITY           SKY/WX    TMP DP  RH WIND       PRES   REMARKS
SWIFT CURRENT  FLURRIES  -2  -6  84 NW22G29   30.13R WCI -26
REGINA         LGT SNOW   3  -2  78 NW22G30   30.09R BLWGSNOWWCI -19
SASKATOON      CLEAR      1  -4  78 NW15G21   30.19R WCI -18
CYPRESS HILLS    N/A     -9 -15  77 NW13G24     N/A  WCI -30
VAL MARIE        N/A     -4  -8  84 NW7         N/A  WCI -18
ROCKGLEN         N/A     -6 -11  77 NW15G22     N/A  WCI -27
$$




USA.gov is the U.S. government's official web portal to all federal, state and local government web resources and services.